This is the latest recevied weather packets stored in our database for station/object AK4NG. If no packets are shown the sender has not sent any weather packets the latest 10 day(s).
| Time | Temp. | Humidity | Pressure | Rain* | Wind** | Luminosity | Snow |
|---|---|---|---|---|---|---|---|
| 1778111355 | 24.44° C | 88% | 1012.9 hPa | 0 mm | - | 2 W/m² | - |
| 1778111054 | 24.44° C | 88% | 1013.1 hPa | 0 mm | - | 4 W/m² | - |
| 1778110751 | 24.44° C | 88% | 1013.3 hPa | 0 mm | - | 6 W/m² | - |
| 1778110447 | 24.44° C | 88% | 1013.2 hPa | 0 mm | - | 8 W/m² | - |
| 1778110144 | 25° C | 87% | 1013.5 hPa | 0 mm | - | 15 W/m² | - |
| 1778109840 | 25° C | 88% | 1013.3 hPa | 0 mm | - | 23 W/m² | - |
| 1778109536 | 25° C | 88% | 1013.3 hPa | 0 mm | - | 14 W/m² | - |
| 1778109234 | 25° C | 88% | 1013.4 hPa | 0 mm | - | 34 W/m² | - |
| 1778108931 | 25° C | 87% | 1013.6 hPa | 0 mm | - | 13 W/m² | - |
| 1778108628 | 25.56° C | 85% | 1013.7 hPa | 0 mm | - | 19 W/m² | - |
| 1778108324 | 25.56° C | 83% | 1013.6 hPa | 0 mm | - | 37 W/m² | - |
| 1778108022 | 25.56° C | 82% | 1013.7 hPa | 0 mm | - | 18 W/m² | - |
| 1778107719 | 26.11° C | 81% | 1013.4 hPa | 0 mm | - | 37 W/m² | - |
| 1778107416 | 26.11° C | 80% | 1013.6 hPa | 0 mm | - | 49 W/m² | - |
| 1778107112 | 26.11° C | 81% | 1013.4 hPa | 1.78 mm | - | 114 W/m² | - |
| 1778106807 | 26.11° C | 81% | 1013.2 hPa | 1.78 mm | - | 173 W/m² | - |
| 1778106505 | 26.11° C | 82% | 1013 hPa | 0 mm | - | 136 W/m² | - |
| 1778106200 | 25.56° C | 85% | 1013.1 hPa | 0 mm | - | 278 W/m² | - |
| 1778105899 | 25° C | 86% | 1012.8 hPa | 0 mm | - | 216 W/m² | - |
| 1778105596 | 25° C | 86% | 1012.6 hPa | 0 mm | - | 139 W/m² | - |
| 1778105294 | 25° C | 85% | 1012.1 hPa | 0 mm | - | 131 W/m² | - |
| 1778104994 | 25° C | 87% | 1012.1 hPa | 0 mm | - | 89 W/m² | - |
| 1778104691 | 25.56° C | 86% | 1012.2 hPa | 0 mm | - | 142 W/m² | - |
| 1778104387 | 25.56° C | 81% | 1012.2 hPa | 0 mm | - | 142 W/m² | - |
| 1778104083 | 26.11° C | 79% | 1012.5 hPa | 0 mm | - | 79 W/m² | - |
* Rain latest hour (hover to see other rain measurements)
** Current wind speed in m/s (hover to see current wind gust speed)